Helicity
53 61 87 113 124 168 92 58 83 66 64 70 28 6 1 -12 5 12 13 19 29 15 -4 -6 14 32 35 16 -18 16 95 240 289 205 259 397 287 315 334 481 398 179 249 286
43 17 135 82 63 63 38 39 38 60 59 62 11 1 41 30 12 14 6 9 15 22 27 -3 19 10 16 25 18 47 65 101 257 159 182 121 165 216 348 282 136 120 106 152
14 132 121 47 59 89 117 104 33 46 56 26 21 34 51 35 24 23 3 4 8 14 16 18 -3 0 -3 -7 7 28 61 63 131 178 113 149 81 153 158 105 85 66 44 39
80 126 54 53 71 99 125 68 62 68 45 15 15 62 72 51 28 17 9 14 9 -1 2 7 2 -11 -6 4 5 42 22 61 87 95 98 112 114 115 99 102 133 152 161 167
80 55 90 57 88 76 60 60 49 52 50 26 8 128 167 67 40 35 34 26 6 -6 -12 -14 3 7 9 16 21 28 73 68 63 59 79 95 122 121 139 85 87 89 63 63
45 55 86 128 114 89 101 66 100 58 57 41 29 23 102 38 39 53 45 28 22 21 2 -10 1 2 9 26 42 55 59 54 52 48 33 55 70 94 61 34 41 44 32 44
31 74 104 115 109 97 84 128 97 96 75 62 70 62 33 28 46 60 30 20 16 14 4 5 13 13 17 42 53 46 26 13 8 35 41 25 23 34 69 79 67 79 60 49
47 72 154 116 84 72 123 108 99 91 79 75 52 31 28 32 49 27 9 10 9 -1 -4 -5 4 8 21 54 47 45 35 25 15 18 18 20 14 5 23 39 50 89 87 78
146 173 162 158 203 156 107 112 112 96 69 56 48 48 52 41 47 36 12 6 12 3 2 2 0 -2 14 40 38 51 43 39 54 42 32 27 15 29 30 46 35 53 69 75
118 121 167 138 144 148 129 117 93 79 78 69 63 55 55 59 53 31 9 19 18 21 19 18 12 12 12 26 28 31 26 46 56 52 61 52 1 -32 -36 0 23 32 49 57
172 201 149 128 122 120 117 102 93 96 96 85 77 77 71 77 66 53 41 27 27 23 20 20 18 26 32 36 27 29 22 25 22 22 52 49 23 -25 -53 -56 -35 -8 12 -7
88 116 100 138 117 90 68 60 53 55 69 86 92 90 89 94 72 58 45 37 33 26 22 23 33 36 36 37 27 20 14 22 11 8 14 11 15 24 13 -28 37 66 100 54
109 134 153 154 98 85 75 76 71 96 100 92 84 90 89 89 59 50 43 37 34 19 7 7 6 24 48 59 39 27 21 35 6 14 21 25 26 30 34 26 28 67 103 138
196 213 147 107 102 78 80 104 113 108 94 87 76 75 74 67 57 56 42 31 38 33 24 12 10 10 11 31 19 14 -3 23 6 3 17 19 22 17 18 24 38 23 93 103
81 37 70 106 77 72 75 73 72 73 70 67 63 64 63 68 65 57 45 28 50 39 35 24 34 31 6 -2 -7 -4 -13 1 -1 -11 -2 7 18 20 12 15 18 12 35 78
36 65 60 62 62 63 63 62 63 62 47 49 59 57 60 64 65 58 47 42 38 28 25 19 17 42 55 55 39 17 -5 -11 -17 -25 -20 4 -5 13 18 14 14 6 -1 42
76 39 52 57 57 59 52 43 45 53 66 72 73 54 58 66 62 53 41 28 47 25 21 14 18 38 39 40 62 50 48 28 5 -13 -26 -30 -32 -33 -17 -10 -11 -12 -19 -9
31 33 46 55 65 61 63 56 78 80 79 93 73 65 68 75 60 46 33 29 19 67 27 27 31 24 23 34 55 41 44 45 44 31 15 -8 -18 -25 -36 -38 -38 -31 -30 -29
59 57 73 90 82 81 77 76 80 115 113 84 77 68 58 51 47 39 34 31 38 55 36 38 32 28 38 39 49 46 47 47 52 51 45 40 27 9 -7 -16 -26 -32 -34 -36
66 113 145 170 119 116 151 161 167 132 94 87 78 59 55 50 44 38 40 58 65 56 43 50 42 41 48 36 37 55 53 55 59 63 60 58 56 49 36 22 6 -3 -14 -26
190 209 224 208 212 190 166 138 137 113 92 80 57 57 59 64 57 53 58 62 97 64 47 46 67 57 57 61 61 69 65 65 68 68 68 67 66 66 61 51 40 25 10 4
180 183 180 155 158 150 124 115 111 112 97 84 85 80 74 68 72 68 80 84 89 74 59 92 81 69 69 76 88 89 89 87 85 84 86 83 81 76 72 66 60 49 37 32
127 123 132 118 119 118 120 115 109 103 98 91 83 81 78 82 86 91 94 113 91 118 80 131 90 77 74 93 108 111 111 117 114 108 107 104 100 95 89 84 74 69 59 46
125 113 110 112 130 130 130 116 101 97 94 91 90 96 101 97 100 102 135 142 143 119 115 131 103 93 97 105 125 125 123 127 136 119 122 118 117 111 105 97 88 80 73 67
128 130 133 137 130 105 111 122 110 108 106 99 113 124 113 116 134 164 145 166 167 127 112 152 115 110 119 118 134 130 123 125 131 115 127 121 122 118 114 108 95 86 78 79
126 116 111 115 113 112 113 135 116 125 129 134 134 144 148 140 144 164 172 160 169 145 144 148 120 133 132 129 160 136 122 116 117 140 133 119 125 118 119 113 99 92 89 84
95 107 115 118 124 116 119 134 131 142 153 152 132 163 153 162 164 183 165 171 179 151 147 137 152 152 130 159 148 137 142 130 141 128 124 113 120 120 122 118 106 92 84 79
Wind_Speed
28 31 24 28 29 34 34 36 35 28 34 53 53 55 57 60 65 70 74 77 79 81 83 83 72 73 67 65 67 59 54 47 42 29 30 35 45 33 29 31 36 37 35 33
29 26 19 26 19 22 26 33 31 28 33 47 50 49 55 61 66 68 71 74 76 78 80 80 76 73 70 67 68 64 61 54 47 44 38 42 40 37 32 35 30 27 28 26
28 16 25 36 17 22 24 27 29 33 40 49 50 50 54 60 64 67 69 70 74 76 77 79 76 73 73 72 69 69 64 58 56 50 47 49 46 45 42 37 34 32 31 34
23 18 40 25 21 22 21 24 28 33 40 47 51 41 48 56 63 66 67 68 68 71 72 76 79 76 74 73 63 67 62 62 59 58 57 50 50 49 48 46 47 46 46 48
27 20 25 19 15 19 21 20 20 32 41 50 52 31 45 56 61 63 65 66 66 67 67 69 73 74 75 73 71 70 66 64 63 59 59 56 54 52 54 51 52 52 48 49
11 23 32 23 23 25 24 27 22 31 39 50 56 50 51 60 60 61 63 65 67 66 66 67 69 70 72 72 73 69 67 63 63 62 61 61 57 54 52 51 51 52 52 55
11 19 24 21 21 21 27 30 26 34 37 42 43 44 51 54 56 58 63 65 66 66 66 68 68 69 69 70 70 69 67 64 62 62 59 56 56 56 57 56 55 55 54 55
11 14 23 19 19 22 23 26 28 33 34 36 38 41 46 50 52 58 62 64 65 65 66 68 69 70 69 70 70 69 66 65 64 63 61 60 59 57 58 59 57 59 59 58
25 20 23 28 25 23 23 24 29 31 33 34 38 42 45 50 52 56 59 61 63 64 66 68 69 69 70 71 71 69 68 67 66 64 64 64 63 63 62 62 61 61 61 62
21 18 22 23 25 26 24 26 29 31 33 36 38 43 45 48 52 52 57 58 61 64 66 68 68 69 69 71 71 70 69 69 69 67 67 66 64 65 64 66 67 68 70 70
21 18 21 22 22 23 25 28 29 33 36 39 40 43 45 47 50 53 56 57 60 63 65 67 68 69 70 71 71 70 69 68 68 67 67 66 64 61 62 61 65 67 70 71
19 10 22 15 19 20 22 26 28 31 34 39 41 41 42 45 49 51 54 56 58 61 64 66 68 69 71 70 70 69 69 69 69 69 68 67 66 65 62 58 63 67 69 71
19 17 20 18 20 20 23 27 29 32 35 35 38 39 41 42 46 48 51 55 57 60 63 65 67 69 71 71 70 68 69 69 67 67 67 68 67 67 67 64 61 66 71 71
20 20 19 16 21 21 23 27 30 32 34 36 36 38 39 41 44 48 51 53 55 59 64 66 68 70 71 70 69 67 66 67 65 65 66 66 66 65 65 66 68 68 71 71
20 25 18 21 22 23 24 25 27 30 32 34 36 37 39 41 43 46 49 51 52 56 60 63 66 69 70 70 69 67 66 67 66 65 65 65 65 65 64 65 65 65 69 69
21 24 24 24 23 23 23 24 26 28 29 31 34 36 38 40 42 45 48 50 53 56 58 60 61 59 57 58 63 66 67 67 67 65 65 66 65 65 65 65 65 65 66 70
21 22 23 22 22 22 23 24 26 28 30 31 33 35 36 38 41 44 46 48 48 53 56 57 57 58 60 60 55 60 62 67 68 68 67 67 66 65 65 65 65 65 65 67
20 21 21 21 21 23 25 26 28 29 29 31 33 34 36 38 39 41 43 44 44 47 54 55 55 57 60 62 61 62 62 61 63 68 69 69 68 67 66 65 65 65 65 65
19 19 19 20 21 23 25 26 27 28 29 30 31 33 34 36 38 39 41 42 44 45 49 51 50 53 58 60 63 62 62 63 62 63 63 65 67 69 69 69 67 67 66 66
16 17 18 19 19 20 23 24 26 27 28 29 30 31 32 33 35 35 33 37 41 40 38 44 48 51 55 54 60 60 61 62 62 62 62 61 62 63 66 69 69 69 68 67
13 14 15 15 15 18 20 22 23 23 24 25 26 27 29 30 30 30 31 31 37 38 35 38 48 48 47 52 52 58 59 60 61 61 61 60 60 60 61 64 66 67 68 68
10 11 12 11 11 14 16 19 19 21 21 22 23 24 24 24 25 26 26 27 34 37 35 41 45 46 44 48 51 53 56 58 59 59 59 59 59 59 59 61 63 64 65 66
10 12 11 6 7 10 13 15 17 17 16 17 17 17 17 23 20 21 24 23 27 34 33 39 41 42 43 45 48 50 51 54 56 56 57 56 56 57 57 58 58 61 62 64
11 13 12 8 7 6 9 11 12 11 11 11 11 12 14 17 18 19 25 27 29 30 32 33 37 39 40 41 46 48 49 51 52 53 55 54 54 55 56 57 56 58 60 61
12 14 11 7 4 1 3 5 6 6 6 5 9 10 9 14 18 31 23 26 26 29 30 26 33 37 38 40 43 45 47 48 48 48 51 52 52 53 54 55 56 56 56 58
13 16 16 11 12 10 3 1 1 2 4 7 10 12 15 16 19 23 26 27 28 28 31 31 32 34 41 40 44 45 44 46 47 47 51 51 51 51 52 54 54 55 55 56
22 23 24 21 19 16 10 7 7 7 7 12 15 14 16 19 22 24 26 27 27 30 30 32 35 35 36 41 44 44 46 46 46 45 48 47 48 50 51 52 53 53 53 54
Wind_Direction
313 319 334 341 340 347 347 351 339 342 332 316 323 331 340 344 348 350 354 357 3 7 353 353 339 341 339 342 350 346 348 351 352 340 337 328 334 304 308 301 304 309 289 280
311 323 358 351 9 21 17 9 12 356 338 325 323 333 335 337 342 347 351 355 359 7 10 350 344 341 340 342 347 346 349 351 343 342 341 345 346 328 331 343 326 314 315 300
315 0 358 339 9 14 19 17 7 357 332 322 325 330 336 335 338 340 342 344 351 0 5 10 347 344 345 344 346 351 351 347 348 341 340 340 343 348 344 328 306 314 322 332
328 8 324 10 32 24 26 13 3 353 341 329 327 341 342 341 336 336 335 336 337 347 355 2 2 354 350 352 345 350 351 353 349 350 352 343 348 346 348 339 339 333 329 331
321 344 4 21 31 27 21 9 12 348 334 328 328 347 345 347 345 340 340 338 336 339 342 344 348 350 356 351 351 353 350 352 353 349 351 350 348 343 346 341 344 347 345 338
14 334 339 26 29 25 25 354 12 358 343 332 326 323 327 336 339 341 341 337 334 335 339 339 341 343 350 351 351 348 346 343 347 349 352 353 347 345 343 343 345 348 344 344
343 346 5 13 18 35 358 359 13 1 357 350 346 341 333 337 341 345 343 343 339 337 339 338 335 339 342 343 344 345 345 345 346 346 346 346 347 345 343 343 343 341 338 336
340 342 339 8 22 356 11 16 11 7 5 1 359 353 345 345 347 345 344 345 345 342 340 339 338 339 339 338 338 339 339 342 345 345 346 346 344 340 343 344 341 339 339 338
342 354 9 4 14 20 15 12 7 6 7 4 357 352 348 345 348 347 348 348 348 345 343 342 342 342 338 336 337 337 340 340 338 338 339 344 346 342 342 341 338 336 334 332
354 15 11 15 15 13 16 11 10 9 6 1 355 349 346 345 344 350 349 349 348 347 345 343 344 343 342 338 339 338 339 339 339 339 337 338 337 340 341 339 338 338 336 334
353 6 9 8 9 13 13 11 11 9 3 356 353 350 348 347 347 346 347 349 349 346 345 344 344 343 343 341 341 338 339 337 338 339 338 337 339 340 342 345 345 338 335 334
350 26 355 17 19 21 15 10 11 5 2 0 358 357 357 355 352 351 350 349 350 349 347 345 344 342 340 340 342 342 342 339 338 336 334 334 334 334 341 345 347 345 341 340
4 28 21 34 27 25 16 14 12 9 5 5 6 8 8 6 2 2 359 358 358 358 353 350 348 345 341 339 340 343 343 339 339 339 338 336 335 334 331 333 340 342 342 338
38 40 31 41 15 31 28 21 20 19 18 18 22 22 20 17 14 10 8 8 10 9 6 2 357 351 345 342 342 341 342 340 341 341 339 337 337 337 336 333 332 334 337 337
55 17 52 47 52 48 43 39 31 25 29 28 29 28 29 29 30 27 23 21 25 23 23 23 23 18 6 355 351 349 346 343 341 341 340 339 338 337 337 336 335 335 335 338
50 51 63 67 62 54 49 46 42 44 54 56 53 48 46 44 40 36 32 30 28 26 25 26 27 31 35 36 27 14 4 359 353 348 344 341 340 338 336 334 334 335 336 336
75 78 81 70 67 65 69 72 72 78 73 65 55 47 49 49 44 39 36 34 35 30 26 27 28 29 29 30 36 33 30 20 10 2 358 352 346 342 338 336 334 333 334 336
84 84 84 79 74 79 75 74 74 75 70 59 55 53 49 47 48 45 43 42 43 40 32 30 28 26 24 24 27 27 28 29 26 20 12 5 358 353 348 343 339 336 334 334
68 70 70 65 72 76 83 84 82 69 62 65 65 61 58 52 51 50 48 47 43 42 36 34 34 30 25 23 21 23 23 23 24 24 23 19 13 6 358 352 347 343 339 336
60 43 34 25 48 69 68 66 72 68 70 72 66 63 60 57 55 55 57 50 46 45 45 39 36 33 28 28 21 22 20 20 20 20 21 21 19 17 10 2 356 352 348 344
41 31 26 26 37 49 68 79 82 82 78 76 70 67 60 60 59 58 53 51 45 43 44 40 33 31 31 27 26 21 19 17 17 17 17 18 17 16 15 10 4 358 352 350
32 22 7 26 48 58 70 81 80 84 82 78 67 68 65 60 55 50 51 45 37 35 36 32 29 27 28 24 23 21 18 15 14 14 14 14 14 13 12 10 6 3 358 354
0 347 344 26 64 69 81 86 92 92 87 87 84 75 65 43 47 39 28 39 34 29 28 26 23 22 20 20 19 17 15 13 11 11 10 11 10 9 8 8 6 2 360 355
353 335 329 335 358 43 109 99 100 90 89 80 72 56 44 29 25 24 22 19 16 15 15 16 16 15 14 13 12 10 9 8 9 7 6 7 6 6 4 2 3 0 357 355
339 330 323 315 314 342 93 92 94 73 66 53 26 18 13 9 8 8 10 9 9 4 4 6 5 6 5 5 4 3 2 2 3 3 3 2 2 1 0 359 358 358 356 355
324 319 311 301 304 309 303 349 250 353 358 345 344 350 352 350 348 348 351 351 352 354 354 353 354 356 355 356 357 355 355 355 356 357 357 356 357 356 356 356 355 354 353 353
310 309 306 303 298 300 298 295 296 305 315 328 329 332 336 340 340 340 342 342 342 343 342 344 344 345 347 348 349 349 350 350 351 351 352 353 353 352 352 353 352 351 351 351